Dubuque, IA

11:50 AM CDT on October 22, 2019 (GMT -0500)
Dubuque Regional

Weather History for KDBQ - June, 2019

Change the Weather History Date:

Sunday, June 2, 2019

  Actual Average Record
Temperature  
Mean Temperature 63 °F 64 °F  
Max Temperature 73 °F 75 °F 98 °F (1934)
Min Temperature 53 °F 54 °F 38 °F (1969)
Degree Days  
Heating Degree Days 2 3  
Month to date heating degree days 2 6  
Since 1 June heating degree days 2 6  
Since 1 July heating degree days 7404 7052  
Cooling Degree Days 0 2  
Month to date cooling degree days 2 4  
Year to date cooling degree days 28 41  
Since 1 June cooling degree days 2 4  
Growing Degree Days 13 (Base 50)    
Moisture  
Dew Point 45 °F    
Average Humidity 54    
Maximum Humidity 83    
Minimum Humidity 30    
Precipitation  
Precipitation 0.00 in 0.14 in 1.73 in (1950)
Month to date precipitation 0.00 0.29  
Year to date precipitation 17.24 13.16  
Snow  
Snow 0.00 in 0.00 in - ()
Month to date snowfall 0.0 0.0  
Since 1 June snowfall 0.0 0.0  
Since 1 July snowfall 55.2 41.9  
Snow Depth 0.00 in    
Sea Level Pressure  
Sea Level Pressure 29.96 in    
Wind  
Wind Speed 7 mph ()    
Max Wind Speed 12 mph    
Max Gust Speed 21 mph    
Visibility 9.7 miles    
Events      
T = Trace of Precipitation, MM = Missing Value Source: Averaged Metar Reports

Daily Weather History Graph

Daily Weather History Graph

Search for Another Location

Airport or City:

Astronomy

Jun. 02, 2019 Rise Set
Actual Time 5:28 AM CDT 8:33 PM CDT
Civil Twilight 4:54 AM CDT 9:08 PM CDT
Nautical Twilight 4:10 AM CDT 9:51 PM CDT
Astronomical Twilight 3:18 AM CDT 10:43 PM CDT
Moon 5:10 AM CDT (6/2) 7:51 PM CDT (6/2)
Length of Visible Light 16h 13m
Length of Day
15h 05m
Waning Crescent, 1% of the Moon is Illuminated
Jun 2
Waning Crescent
Jun 3
New
Jun 10
First Quarter
Jun 17
Full
Jun 25
Last Quarter

Hourly Weather History & Observations

Time (CDT) Temp. Dew Point Humidity Pressure Visibility Wind Dir Wind Speed Gust Speed Precip Events Conditions
12:53 AM 57.0 °F 51.1 °F 81% 29.86 in 10.0 mi NNW 8.1 mph - N/A   Clear
1:53 AM 57.9 °F 50.0 °F 75% 29.86 in 10.0 mi NNW 9.2 mph - N/A   Clear
2:53 AM 57.0 °F 48.9 °F 74% 29.86 in 10.0 mi NNW 9.2 mph - N/A   Clear
3:53 AM 57.0 °F 46.9 °F 69% 29.88 in 10.0 mi NNW 10.4 mph - N/A   Clear
4:53 AM 55.0 °F 46.9 °F 74% 29.90 in 10.0 mi North 6.9 mph - N/A   Clear
5:53 AM 54.0 °F 46.9 °F 77% 29.93 in 10.0 mi North 8.1 mph - N/A   Clear
6:53 AM 55.9 °F 46.0 °F 69% 29.95 in 10.0 mi North 6.9 mph - N/A   Clear
7:53 AM 57.0 °F 46.0 °F 67% 29.96 in 10.0 mi North 5.8 mph - N/A   Clear
8:53 AM 59.0 °F 46.0 °F 62% 29.98 in 10.0 mi North 5.8 mph - N/A   Clear
9:53 AM 63.0 °F 43.0 °F 48% 29.99 in 10.0 mi NE 5.8 mph - N/A   Clear
10:53 AM 66.0 °F 41.0 °F 40% 30.00 in 10.0 mi North 9.2 mph - N/A   Clear
11:53 AM 68.0 °F 37.0 °F 32% 30.01 in 10.0 mi NNW 11.5 mph - N/A   Clear
12:53 PM 70.0 °F 39.0 °F 32% 30.01 in 8.0 mi NNW 6.9 mph 18.4 mph N/A   Clear
1:53 PM 72.0 °F 39.0 °F 30% 30.00 in 8.0 mi North 11.5 mph 20.7 mph N/A   Clear
2:53 PM 72.0 °F 41.0 °F 33% 30.00 in 8.0 mi North 11.5 mph 18.4 mph N/A   Clear
4:53 PM 73.0 °F 41.0 °F 31% 29.98 in 10.0 mi WNW 10.4 mph 17.3 mph N/A   Clear
5:53 PM 73.0 °F 41.0 °F 31% 29.98 in 10.0 mi NNW 6.9 mph - N/A   Clear
6:53 PM 73.0 °F 41.0 °F 31% 29.98 in 10.0 mi NNW 6.9 mph - N/A   Clear
7:53 PM 70.0 °F 43.0 °F 38% 29.97 in 10.0 mi Calm Calm - N/A   Clear
8:53 PM 63.0 °F 52.0 °F 67% 29.97 in 10.0 mi Calm Calm - N/A   Clear
9:53 PM 57.0 °F 52.0 °F 83% 29.99 in 10.0 mi Calm Calm - N/A   Clear
10:53 PM - - N/A% - - North - - N/A   Unknown
11:53 PM - - N/A% - - North - - N/A   Unknown